Location: Baix
(44.7118°N, 4.7648°E)
Time: 02:31:27
(UTC+00:00)

Cosmos 1980 - Pass Details

Date: 07 August 2020
Orbit: 838 x 848 km, 71.0° (Epoch: 19 September)

Event Time Altitude Azimuth Distance (km) Brightness Sun altitude
Rises 00:39:59 0° 336° (NNW) 3,413 7.6 -27.8°
Reaches altitude 10° 00:42:28 10° 340° (NNW) 2,475 6.8 -27.6°
Maximum altitude 00:48:06 61° 61° (ENE) 961 4.1 -27.4°
Enters shadow 00:49:29 47° 113° (ESE) 1,113 4.2 -27.3°
